GW7003 Weather Reports


time (UTC)temp
F
wind
direction
speed
knots
gust
knots
rain 1hr
in
rain 24hr
in
rain mn
in
humidity
%
barometer
mb
20260505140530 64 164 0.9 1.7 0.00 0.99 0.99 90 1005.2
20260505124944 61 164 1.7 2.6 0.00 0.99 0.99 95 1005.2
20260505124440 60 199 0.0 0.9 0.00 0.99 0.99 96 1005.2
20260505123937 60 207 0.9 1.7 0.00 0.99 0.99 96 1005.3
20260505123433 60 173 0.0 0.0 0.00 0.99 0.99 96 1005.1
20260505122929 60 175 0.0 0.0 0.00 0.99 0.99 96 1005.2
20260505122427 60 175 0.9 0.9 0.00 0.99 0.99 96 1005.3
20260505121923 60 174 0.0 0.0 0.00 0.99 0.99 95 1005.1
20260505121421 60 174 0.0 0.9 0.00 0.99 0.99 95 1005.1
20260505120916 60 165 0.0 1.7 0.00 0.99 0.99 95 1005.1
20260505120413 60 196 0.9 0.9 0.00 0.99 0.99 95 1005.0
20260505115912 60 213 0.0 1.7 0.00 0.99 0.99 95 1005.0
20260505115408 60 215 0.9 1.7 0.00 0.99 0.99 96 1005.2
20260505114907 60 175 0.0 0.9 0.05 0.99 0.99 96 1005.2
20260505114403 60 196 1.7 2.6 0.05 0.99 0.99 96 1005.0
20260505113859 60 154 0.0 1.7 0.00 0.98 0.98 96 1005.0
20260505113356 60 152 0.0 0.0 0.00 0.98 0.98 96 1005.1
20260505112851 60 152 0.0 0.0 0.00 0.98 0.98 96 1005.2
20260505112350 60 151 0.0 0.9 0.00 0.98 0.98 96 1005.2
20260505111845 60 160 1.7 2.6 0.00 0.98 0.98 96 1005.1
20260505111340 60 155 1.7 2.6 0.00 0.98 0.98 96 1005.3
20260505110836 60 168 1.7 1.7 0.00 0.98 0.98 96 1005.4
20260505110334 60 154 1.7 2.6 0.00 0.98 0.98 96 1005.1
20260505101809 60 141 0.0 0.0 0.00 0.98 0.98 96 1005.5
20260505101304 60 140 0.9 2.6 0.00 0.98 0.98 96 1005.4
20260505100800 60 94 1.7 2.6 0.00 0.98 0.98 96 1005.6
20260505100257 60 199 0.9 1.7 0.07 0.98 0.98 96 1005.8
20260505095753 60 150 0.9 0.9 0.07 0.98 0.98 96 1005.5
20260505095251 60 166 0.0 0.9 0.00 0.97 0.97 96 1005.8
20260505094746 60 189 0.9 0.9 0.00 0.97 0.97 96 1005.8
20260505094243 60 110 0.0 0.9 0.05 0.97 0.97 96 1005.6
20260505093739 60 169 0.9 1.7 0.17 0.97 0.97 96 1005.4
20260505093237 60 117 1.7 2.6 0.05 0.95 0.95 96 1005.6
20260505092733 60 97 0.9 0.9 0.07 0.94 0.94 96 1005.9
20260505092232 60 97 1.7 1.7 0.07 0.94 0.94 96 1005.7
20260505091729 60 176 0.9 1.7 0.00 0.93 0.93 96 1005.4
20260505091228 60 212 0.9 1.7 0.00 0.93 0.93 95 1005.5
20260505090725 60 164 0.0 0.9 0.00 0.93 0.93 95 1005.4
20260505090223 60 175 0.9 3.5 0.00 0.93 0.93 95 1005.0
20260505085719 60 100 1.7 3.5 0.05 0.93 0.93 95 1005.4
20260505085218 60 174 0.9 3.5 0.12 0.93 0.93 95 1005.2
20260505084715 60 350 3.5 3.5 0.54 0.92 0.92 95 1005.7
20260505084214 60 135 2.6 5.2 1.16 0.90 0.90 94 1004.8
20260505083710 60 86 2.6 3.5 1.39 0.81 0.81 94 1005.5
20260505083207 60 359 4.3 7.8 1.87 0.70 0.70 93 1005.7
20260505082703 60 344 3.5 6.1 2.53 0.55 0.55 92 1005.0
20260505082200 61 165 1.7 6.1 1.37 0.36 0.36 91 1004.2
20260505081656 61 298 7.8 13.9 0.00 0.13 0.13 89 1005.1
20260505081154 61 331 6.1 8.7 0.19 0.13 0.13 88 1002.8
20260505080650 61 55 1.7 5.2 0.12 0.12 0.12 87 1002.1
20260505080146 61 134 2.6 3.5 0.00 0.10 0.10 87 1001.8
20260505075642 61 188 0.9 6.1 0.00 0.10 0.10 87 1002.5
20260505075139 61 158 3.5 7.8 0.00 0.10 0.10 86 1002.3
20260505074636 61 200 2.6 3.5 0.05 0.10 0.10 87 1003.2
20260505074133 61 216 2.6 3.5 0.17 0.10 0.10 87 1003.7
20260505073631 62 164 5.2 11.3 0.35 0.09 0.09 84 1003.3
20260505073129 63 190 4.3 6.1 0.35 0.07 0.07 80 1004.6
20260505072624 64 165 1.7 2.6 0.05 0.02 0.02 79 1005.4
20260505072121 65 314 2.6 3.5 0.07 0.01 0.01 76 1006.2
20260505071617 65 331 4.3 5.2 0.00 0.00 0.00 74 1005.5
20260505071115 64 346 1.7 2.6 0.00 0.00 0.00 74 1005.3
20260505070612 65 245 1.7 2.6 0.00 0.00 0.00 74 1005.0
20260505070108 65 231 0.0 2.6 0.00 0.00 0.00 71 1004.8
20260505065604 65 194 0.9 0.9 0.00 0.00 0.00 71 1004.6
20260505065101 66 238 1.7 2.6 0.00 0.00 0.00 68 1004.4
20260505064557 66 156 3.5 6.1 0.00 0.00 0.00 67 1004.6
20260505064056 67 200 1.7 3.5 0.00 0.00 0.00 66 1005.1
20260505063553 67 165 1.7 2.6 0.00 0.00 0.00 66 1004.9
20260505063049 67 174 0.0 3.5 0.00 0.00 0.00 66 1005.0
20260505062545 67 160 3.5 6.1 0.00 0.00 0.00 64 1005.0
20260505062043 68 190 3.5 5.2 0.00 0.00 0.00 63 1005.4
20260505061540 67 229 4.3 7.0 0.00 0.00 0.00 64 1005.5
20260505061038 67 188 0.9 2.6 0.00 0.00 0.00 65 1005.6
20260505060535 66 250 3.5 2.6 0.00 0.00 0.00 65 1005.4
20260505060031 66 187 1.7 3.5 0.00 0.00 0.00 67 1005.3
20260505055527 66 180 2.6 3.5 0.00 0.00 0.00 66 1005.5
20260505055024 65 174 3.5 5.2 0.00 0.00 0.00 68 1005.5
20260505054521 65 207 0.9 5.2 0.00 0.00 0.00 69 1005.4
20260505054019 64 231 1.7 5.2 0.00 0.00 0.00 71 1005.2
20260505053516 64 180 0.9 1.7 0.00 0.00 0.00 73 1005.2
20260505053013 64 205 0.9 1.7 0.00 0.00 0.00 74 1005.6
20260505052510 63 212 0.9 1.7 0.00 0.00 0.00 75 1005.5
20260505052008 63 215 0.9 1.7 0.00 0.00 0.00 75 1005.6
20260505051504 62 212 1.7 1.7 0.00 0.00 0.00 78 1005.8
20260505051003 62 208 1.7 1.7 0.00 0.00 0.00 78 1005.7
20260505050500 61 199 0.0 1.7 0.00 0.00 0.00 78 1005.7
20260505041428 64 217 0.0 0.0 0.00 0.00 0.00 71 1006.3
20260505040925 64 217 0.9 1.7 0.00 0.00 0.00 71 1006.2
20260505040422 65 200 0.9 1.7 0.00 0.00 0.00 70 1006.1
20260505035919 63 219 1.7 1.7 0.00 0.00 0.00 74 1006.5
20260505035415 63 214 0.9 1.7 0.00 0.00 0.00 75 1006.6
20260505034912 63 200 0.0 1.7 0.00 0.00 0.00 75 1006.6
20260505034408 62 219 1.7 1.7 0.00 0.00 0.00 76 1006.6
20260505033906 62 137 0.0 0.0 0.00 0.00 0.00 78 1006.6
20260505033402 63 137 0.0 0.0 0.00 0.00 0.00 76 1006.5
20260505032901 64 137 0.0 0.0 0.00 0.00 0.00 74 1006.7
20260505032357 64 180 0.0 0.9 0.00 0.00 0.00 72 1006.9
20260505031854 65 180 0.0 0.0 0.00 0.00 0.00 70 1006.6
20260505031351 66 190 1.7 2.6 0.00 0.00 0.00 67 1006.9
20260505030848 66 179 0.0 0.9 0.00 0.00 0.00 66 1006.8
20260505030344 65 203 0.0 2.6 0.00 0.00 0.00 67 1006.9
20260505025839 66 175 0.0 0.9 0.00 0.00 0.00 68 1006.7
20260505025337 66 175 0.9 0.9 0.00 0.00 0.00 67 1006.7
20260505024836 66 215 1.7 1.7 0.00 0.00 0.00 67 1006.6
20260505024333 66 168 0.9 0.9 0.00 0.00 0.00 68 1006.4
20260505023830 66 158 0.9 0.9 0.00 0.00 0.00 68 1006.6
20260505023327 65 210 1.7 3.5 0.00 0.00 0.00 70 1006.5
20260505022824 65 188 0.0 0.0 0.00 0.00 0.00 70 1006.5
20260505022321 65 193 0.0 0.0 0.00 0.00 0.00 70 1006.1
20260505021818 64 182 0.9 0.9 0.00 0.00 0.00 71 1006.2
20260505021314 65 177 0.0 0.9 0.00 0.00 0.00 70 1006.2
20260505020810 65 208 0.0 0.9 0.00 0.00 0.00 69 1006.1
20260505020307 65 200 0.9 6.1 0.00 0.00 0.00 70 1006.1
20260505015803 65 197 1.7 1.7 0.00 0.00 0.00 69 1005.9
20260505015301 66 198 0.0 0.9 0.00 0.00 0.00 68 1005.9
20260505014758 66 215 0.0 0.9 0.00 0.00 0.00 68 1005.9
20260505014255 66 214 0.0 0.9 0.00 0.00 0.00 66 1005.8
20260505013751 66 188 1.7 1.7 0.00 0.00 0.00 67 1005.7
20260505013249 67 194 0.0 0.9 0.00 0.00 0.00 66 1005.6
20260505012747 68 193 0.9 2.6 0.00 0.00 0.00 63 1005.7
20260505012244 68 209 1.7 1.7 0.00 0.00 0.00 63 1005.4
20260505011739 68 186 1.7 1.7 0.00 0.00 0.00 62 1005.5
20260505011237 68 181 0.9 0.9 0.00 0.00 0.00 62 1005.5
20260505010732 69 187 0.9 5.2 0.00 0.00 0.00 61 1005.6
20260505010229 69 194 2.6 2.6 0.00 0.00 0.00 62 1005.6
20260505005725 69 210 1.7 3.5 0.00 0.00 0.00 60 1005.6
20260505005222 69 198 0.9 3.5 0.00 0.00 0.00 59 1005.3
20260505004719 70 191 1.7 2.6 0.00 0.00 0.00 59 1005.5
20260505004216 70 178 2.6 2.6 0.00 0.00 0.00 59 1005.4
20260505003713 70 219 1.7 2.6 0.00 0.00 0.00 58 1005.5
20260505003211 70 173 2.6 2.6 0.00 0.00 0.00 57 1005.5
20260505002707 71 228 2.6 5.2 0.00 0.00 0.00 57 1005.6
20260505002205 71 199 1.7 3.5 0.00 0.00 0.00 55 1005.5
20260505001702 71 213 2.6 5.2 0.00 0.00 0.00 55 1005.5
20260505001159 72 226 2.6 3.5 0.00 0.00 0.00 55 1005.5
20260505000656 72 176 1.7 3.5 0.00 0.00 0.00 55 1005.5
20260505000154 72 233 3.5 5.2 0.00 0.00 0.00 53 1005.4
20260504235650 73 175 1.7 3.5 0.00 0.00 0.00 52 1005.6
20260504235146 73 179 0.9 6.1 0.00 0.00 0.00 53 1005.4
20260504234644 73 181 3.5 7.0 0.00 0.00 0.00 52 1005.3
20260504234141 73 262 6.1 7.0 0.00 0.00 0.00 52 1005.5
20260504233637 73 234 3.5 7.8 0.00 0.00 0.00 51 1005.5
20260504233133 73 180 5.2 8.7 0.00 0.00 0.00 51 1005.5
20260504232631 73 249 4.3 7.8 0.00 0.00 0.00 51 1005.5
20260504232127 74 174 4.3 9.6 0.00 0.00 0.00 51 1005.6
20260504231624 74 183 7.0 12.2 0.00 0.00 0.00 49 1005.7
20260504231120 74 211 3.5 3.5 0.00 0.00 0.00 51 1005.6
20260504230616 74 203 4.3 8.7 0.00 0.00 0.00 52 1005.6
20260504230116 75 216 5.2 7.8 0.00 0.00 0.00 52 1005.5
20260504225613 76 191 3.5 8.7 0.00 0.00 0.00 51 1005.1
20260504225109 76 234 2.6 8.7 0.00 0.00 0.00 51 1005.4
20260504224606 76 234 2.6 7.0 0.00 0.00 0.00 52 1005.5
20260504224103 76 232 2.6 7.0 0.00 0.00 0.00 50 1005.2
20260504223600 76 244 3.5 3.5 0.00 0.00 0.00 48 1005.6
20260504223055 76 113 3.5 8.7 0.00 0.00 0.00 51 1005.4
20260504222553 77 203 5.2 7.0 0.00 0.00 0.00 48 1005.3
20260504222050 77 213 4.3 9.6 0.00 0.00 0.00 48 1005.5
20260504221547 77 183 5.2 7.0 0.00 0.00 0.00 47 1005.6
20260504221044 77 303 5.2 7.8 0.00 0.00 0.00 46 1005.8
20260504220540 77 178 2.6 5.2 0.00 0.00 0.00 46 1005.9
20260504220038 77 161 9.6 13.0 0.00 0.00 0.00 45 1006.2
20260504215534 77 232 5.2 7.0 0.00 0.00 0.00 47 1005.8
20260504215032 77 231 1.7 7.8 0.00 0.00 0.00 49 1006.0
20260504214527 77 214 3.5 3.5 0.00 0.00 0.00 47 1005.9
20260504214024 77 214 7.0 11.3 0.00 0.00 0.00 47 1006.1
20260504213521 77 230 4.3 9.6 0.00 0.00 0.00 49 1006.0
20260504213018 77 188 5.2 7.0 0.00 0.00 0.00 45 1006.3
20260504212513 78 180 2.6 5.2 0.00 0.00 0.00 49 1006.3
20260504212011 77 210 1.7 7.0 0.00 0.00 0.00 49 1006.4
20260504211508 77 228 7.8 9.6 0.00 0.00 0.00 47 1006.6
20260504211005 77 205 3.5 7.8 0.00 0.00 0.00 47 1006.3
20260504210502 77 175 5.2 6.1 0.00 0.00 0.00 47 1006.5
20260504205958 77 165 7.0 8.7 0.00 0.00 0.00 49 1006.5
20260504205456 77 212 3.5 12.2 0.00 0.00 0.00 50 1006.5
20260504204954 77 162 4.3 13.0 0.00 0.00 0.00 49 1006.5
20260504204452 78 185 7.8 13.0 0.00 0.00 0.00 44 1006.7
20260504203951 78 218 6.1 8.7 0.00 0.00 0.00 45 1006.7
20260504203449 78 169 2.6 5.2 0.00 0.00 0.00 44 1006.8
20260504202944 78 235 3.5 6.1 0.00 0.00 0.00 45 1007.2
20260504202441 78 177 5.2 9.6 0.00 0.00 0.00 44 1007.2
20260504201938 78 215 5.2 9.6 0.00 0.00 0.00 45 1007.1
20260504201435 78 238 4.3 9.6 0.00 0.00 0.00 42 1007.2
20260504200933 78 215 5.2 11.3 0.00 0.00 0.00 43 1007.3
20260504200429 77 232 5.2 12.2 0.00 0.00 0.00 45 1007.5
20260504195926 77 272 7.0 11.3 0.00 0.00 0.00 44 1007.6
20260504195422 77 254 7.8 12.2 0.00 0.00 0.00 43 1007.7
20260504194918 77 182 4.3 7.8 0.00 0.00 0.00 44 1007.4
20260504194414 78 215 10.4 13.0 0.00 0.00 0.00 43 1007.3
20260504193910 77 205 2.6 7.0 0.00 0.00 0.00 46 1007.6
20260504193408 77 206 2.6 11.3 0.00 0.00 0.00 44 1007.7
20260504192907 77 247 8.7 11.3 0.00 0.00 0.00 46 1007.6
20260504192403 77 205 3.5 9.6 0.00 0.00 0.00 46 1008.0
20260504191902 76 246 7.8 8.7 0.00 0.00 0.00 45 1008.0
20260504191400 77 226 7.8 11.3 0.00 0.00 0.00 43 1008.0
20260504190855 77 233 2.6 8.7 0.00 0.00 0.00 47 1008.0
20260504190351 77 232 3.5 8.7 0.00 0.00 0.00 48 1008.1
20260504185848 77 181 10.4 13.0 0.00 0.00 0.00 44 1008.0
20260504185345 77 226 6.1 8.7 0.00 0.00 0.00 46 1007.9
20260504184841 77 208 3.5 9.6 0.00 0.00 0.00 46 1008.3
20260504184337 76 189 3.5 7.8 0.00 0.00 0.00 49 1008.2
20260504183833 77 114 3.5 7.8 0.00 0.00 0.00 46 1008.2
20260504183330 76 231 5.2 9.6 0.00 0.00 0.00 48 1008.4
20260504182828 76 221 3.5 7.0 0.00 0.00 0.00 49 1008.4
20260504182325 76 226 3.5 12.2 0.00 0.00 0.00 48 1008.6
20260504181822 76 229 7.8 13.0 0.00 0.00 0.00 47 1008.5
20260504181320 76 257 5.2 11.3 0.00 0.00 0.00 48 1008.9
20260504180818 76 145 9.6 12.2 0.00 0.00 0.00 51 1008.6
20260504180316 75 232 4.3 9.6 0.00 0.00 0.00 48 1008.6
20260504175814 75 160 7.8 12.2 0.00 0.00 0.00 49 1008.8
20260504175311 75 192 4.3 13.9 0.00 0.00 0.00 50 1009.1
20260504174809 75 244 4.3 11.3 0.00 0.00 0.00 48 1009.0
20260504174306 75 188 3.5 12.2 0.00 0.00 0.00 50 1009.0
20260504173803 75 220 6.1 12.2 0.00 0.00 0.00 47 1009.0
20260504173259 75 170 5.2 11.3 0.00 0.00 0.00 47 1009.0
20260504172756 75 195 4.3 8.7 0.00 0.00 0.00 48 1009.1
20260504172253 74 198 4.3 13.0 0.00 0.00 0.00 52 1009.1
20260504171749 74 172 4.3 9.6 0.00 0.00 0.00 49 1009.1
20260504171246 74 182 5.2 7.8 0.00 0.00 0.00 48 1009.4
20260504170743 74 161 5.2 11.3 0.00 0.00 0.00 49 1009.2
20260504170240 74 195 5.2 9.6 0.00 0.00 0.00 47 1009.4
20260504160159 73 224 4.3 13.0 0.00 0.00 0.00 47 1009.9
20260504151126 71 224 6.1 13.9 0.00 0.00 0.00 48 1010.0
20260504150624 71 262 5.2 9.6 0.00 0.00 0.00 47 1010.2
20260504150121 71 288 3.5 11.3 0.00 0.00 0.00 48 1010.1